When you browse on this site, cookies collect data to enhance your experience and personalize the content and advertising you see.
Visit our Privacy Policy to learn more. By continuing to use the site, you agree to this use of cookies and data.
  • In Hungary
  • List of Countries
  • For 7 days
  • Water Temperature
  • Weather Map
  • News
  • Weather Widgets
  • user-avatar
    Login

    Hourly Weather Cibari

    Today, 19 October, Saturday

    Time Temperature Precipitation Wind Pressure Humidity
    00:00 +9°C° 0 mm 1 mps 620 mmHg 50%
    01:00 +9°C° 0 mm 1 mps 619 mmHg 51%
    02:00 +9°C° 0 mm 1 mps 619 mmHg 52%
    03:00 +9°C° 0 mm 1 mps 619 mmHg 52%
    04:00 +9°C° 0 mm 1 mps 619 mmHg 53%
    05:00 +9°C° 0 mm 1 mps 619 mmHg 53%
    06:00 +9°C° 0 mm 1 mps 620 mmHg 54%
    07:00 +11°C° 0 mm 1 mps 621 mmHg 49%
    08:00 +12°C° 0 mm 0 mps 621 mmHg 45%
    09:00 +14°C° 0 mm 0 mps 622 mmHg 40%
    10:00 +16°C° 0 mm 1 mps 623 mmHg 40%
    11:00 +18°C° 0 mm 1 mps 623 mmHg 40%
    12:00 +18°C° 0 mm 2 mps 623 mmHg 39%
    13:00 +18°C° 0.1 mm 1 mps 623 mmHg 42%
    14:00 +18°C° 0.1 mm 1 mps 622 mmHg 45%
    15:00 +16°C° 0.1 mm 1 mps 622 mmHg 48%
    16:00 +14°C° 0.1 mm 1 mps 621 mmHg 56%
    17:00 +13°C° 0.1 mm 1 mps 621 mmHg 63%
    18:00 +11°C° 0.1 mm 1 mps 621 mmHg 70%
    19:00 +11°C° 0 mm 1 mps 621 mmHg 72%
    20:00 +9°C° 0 mm 0 mps 621 mmHg 73%
    21:00 +9°C° 0 mm 0 mps 621 mmHg 75%
    22:00 +8°C° 0 mm 0 mps 621 mmHg 76%
    23:00 +8°C° 0 mm 0 mps 621 mmHg 76%

    Tomorrow, 20 October, Sunday

    Time Temperature Precipitation Wind Pressure Humidity
    00:00 +8°C° 0 mm 0 mps 621 mmHg 77%
    01:00 +7°C° 0 mm 0 mps 621 mmHg 78%
    02:00 +7°C° 0 mm 0 mps 620 mmHg 79%
    03:00 +8°C° 0 mm 1 mps 620 mmHg 80%
    04:00 +8°C° 0 mm 1 mps 621 mmHg 80%
    05:00 +8°C° 0 mm 1 mps 621 mmHg 80%
    06:00 +8°C° 0 mm 1 mps 621 mmHg 79%
    07:00 +10°C° 0 mm 1 mps 622 mmHg 72%
    08:00 +12°C° 0 mm 1 mps 623 mmHg 66%
    09:00 +13°C° 0 mm 0 mps 624 mmHg 59%
    10:00 +15°C° 0.1 mm 1 mps 624 mmHg 57%
    11:00 +15°C° 0.1 mm 1 mps 624 mmHg 55%
    12:00 +16°C° 0.1 mm 2 mps 624 mmHg 53%
    13:00 +16°C° 0.5 mm 1 mps 624 mmHg 57%
    14:00 +15°C° 0.5 mm 1 mps 624 mmHg 60%
    15:00 +15°C° 0.5 mm 1 mps 623 mmHg 63%
    16:00 +13°C° 0.4 mm 1 mps 623 mmHg 70%
    17:00 +12°C° 0.4 mm 1 mps 622 mmHg 77%
    18:00 +10°C° 0.4 mm 1 mps 622 mmHg 84%
    19:00 +9°C° 0 mm 0 mps 622 mmHg 85%
    20:00 +9°C° 0 mm 0 mps 622 mmHg 86%
    21:00 +8°C° 0 mm 0 mps 622 mmHg 86%
    22:00 +8°C° 0 mm 0 mps 622 mmHg 88%
    23:00 +8°C° 0 mm 0 mps 622 mmHg 89%

    Day after tomorrow, 21 October, Monday

    Time Temperature Precipitation Wind Pressure Humidity
    00:00 +8°C° 0 mm 0 mps 622 mmHg 90%
    01:00 +8°C° 0 mm 0 mps 622 mmHg 91%
    02:00 +8°C° 0 mm 0 mps 622 mmHg 92%
    03:00 +7°C° 0 mm 0 mps 622 mmHg 93%
    04:00 +7°C° 0 mm 0 mps 622 mmHg 93%
    05:00 +7°C° 0 mm 0 mps 622 mmHg 92%
    06:00 +6°C° 0 mm 0 mps 622 mmHg 92%
    07:00 +9°C° 0 mm 1 mps 622 mmHg 86%
    08:00 +11°C° 0 mm 1 mps 623 mmHg 81%
    09:00 +12°C° 0 mm 1 mps 624 mmHg 75%
    10:00 +13°C° 0 mm 1 mps 624 mmHg 72%
    11:00 +14°C° 0 mm 1 mps 624 mmHg 69%
    12:00 +15°C° 0 mm 2 mps 624 mmHg 65%
    13:00 +14°C° 0.1 mm 2 mps 624 mmHg 68%
    14:00 +14°C° 0.1 mm 2 mps 624 mmHg 71%
    15:00 +13°C° 0.1 mm 1 mps 623 mmHg 73%
    16:00 +12°C° 0 mm 1 mps 623 mmHg 78%
    17:00 +11°C° 0 mm 1 mps 623 mmHg 83%
    18:00 +10°C° 0 mm 1 mps 622 mmHg 88%
    19:00 +10°C° 0 mm 1 mps 622 mmHg 88%
    20:00 +10°C° 0 mm 1 mps 622 mmHg 88%
    21:00 +9°C° 0 mm 1 mps 622 mmHg 88%
    22:00 +9°C° 0 mm 1 mps 622 mmHg 88%
    23:00 +9°C° 0 mm 1 mps 622 mmHg 87%

    22 October, Tuesday

    Time Temperature Precipitation Wind Pressure Humidity
    00:00 +9°C° 0 mm 1 mps 622 mmHg 87%
    01:00 +9°C° 0 mm 1 mps 622 mmHg 87%
    02:00 +8°C° 0 mm 1 mps 621 mmHg 86%
    03:00 +8°C° 0 mm 1 mps 621 mmHg 86%
    04:00 +7°C° 0 mm 1 mps 621 mmHg 86%
    05:00 +7°C° 0 mm 1 mps 621 mmHg 87%
    06:00 +6°C° 0 mm 1 mps 620 mmHg 87%
    07:00 +8°C° 0 mm 1 mps 621 mmHg 79%
    08:00 +10°C° 0 mm 1 mps 622 mmHg 71%
    09:00 +12°C° 0 mm 1 mps 623 mmHg 62%
    10:00 +13°C° 0 mm 1 mps 623 mmHg 59%
    11:00 +14°C° 0 mm 1 mps 624 mmHg 56%
    12:00 +15°C° 0 mm 2 mps 624 mmHg 52%
    13:00 +15°C° 0 mm 2 mps 624 mmHg 55%
    14:00 +15°C° 0 mm 2 mps 623 mmHg 57%
    15:00 +14°C° 0 mm 2 mps 623 mmHg 60%
    16:00 +13°C° 0 mm 1 mps 623 mmHg 69%
    17:00 +11°C° 0 mm 1 mps 622 mmHg 78%
    18:00 +8°C° 0 mm 0 mps 621 mmHg 88%
    19:00 +7°C° 0 mm 0 mps 621 mmHg 88%
    20:00 +7°C° 0 mm 0 mps 621 mmHg 88%
    21:00 +7°C° 0 mm 0 mps 621 mmHg 89%
    22:00 +6°C° 0 mm 0 mps 621 mmHg 89%
    23:00 +6°C° 0 mm 0 mps 621 mmHg 89%

    23 October, Wednesday

    Time Temperature Precipitation Wind Pressure Humidity
    00:00 +7°C° 0 mm 1 mps 621 mmHg 89%
    01:00 +7°C° 0 mm 1 mps 621 mmHg 89%
    02:00 +6°C° 0 mm 1 mps 621 mmHg 88%
    03:00 +6°C° 0 mm 1 mps 620 mmHg 88%
    04:00 +6°C° 0 mm 1 mps 620 mmHg 86%
    05:00 +6°C° 0 mm 1 mps 620 mmHg 85%
    06:00 +5°C° 0 mm 0 mps 620 mmHg 83%
    07:00 +7°C° 0 mm 0 mps 621 mmHg 73%
    08:00 +9°C° 0 mm 0 mps 622 mmHg 63%
    09:00 +12°C° 0 mm 0 mps 623 mmHg 54%
    10:00 +14°C° 0 mm 1 mps 624 mmHg 50%
    11:00 +15°C° 0 mm 1 mps 624 mmHg 46%
    12:00 +16°C° 0 mm 1 mps 624 mmHg 43%
    13:00 +15°C° 0 mm 1 mps 624 mmHg 46%
    14:00 +15°C° 0 mm 1 mps 623 mmHg 48%
    15:00 +15°C° 0 mm 1 mps 623 mmHg 51%
    16:00 +13°C° 0 mm 1 mps 622 mmHg 61%
    17:00 +11°C° 0 mm 1 mps 621 mmHg 71%
    18:00 +8°C° 0 mm 0 mps 621 mmHg 81%
    19:00 +7°C° 0 mm 0 mps 621 mmHg 81%
    20:00 +7°C° 0 mm 0 mps 621 mmHg 81%
    21:00 +7°C° 0 mm 0 mps 621 mmHg 82%
    22:00 +6°C° 0 mm 0 mps 621 mmHg 82%
    23:00 +7°C° 0 mm 1 mps 620 mmHg 83%

    24 October, Thursday

    Time Temperature Precipitation Wind Pressure Humidity
    00:00 +7°C° 0 mm 1 mps 620 mmHg 84%
    01:00 +6°C° 0 mm 1 mps 620 mmHg 83%
    02:00 +6°C° 0 mm 1 mps 620 mmHg 83%
    03:00 +5°C° 0 mm 0 mps 620 mmHg 82%
    04:00 +6°C° 0 mm 1 mps 620 mmHg 79%
    05:00 +6°C° 0 mm 1 mps 620 mmHg 77%
    06:00 +6°C° 0 mm 1 mps 620 mmHg 74%
    07:00 +9°C° 0 mm 1 mps 621 mmHg 65%
    08:00 +11°C° 0 mm 1 mps 622 mmHg 55%
    09:00 +13°C° 0 mm 1 mps 623 mmHg 46%
    10:00 +14°C° 0 mm 1 mps 623 mmHg 45%
    11:00 +15°C° 0 mm 1 mps 623 mmHg 43%
    12:00 +16°C° 0 mm 2 mps 623 mmHg 42%
    13:00 +15°C° 0 mm 2 mps 623 mmHg 45%
    14:00 +15°C° 0 mm 2 mps 623 mmHg 48%
    15:00 +15°C° 0 mm 2 mps 622 mmHg 51%
    16:00 +13°C° 0 mm 1 mps 622 mmHg 61%
    17:00 +11°C° 0 mm 1 mps 621 mmHg 70%
    18:00 +9°C° 0 mm 1 mps 620 mmHg 79%
    19:00 +8°C° 0 mm 1 mps 620 mmHg 78%
    20:00 +8°C° 0 mm 1 mps 620 mmHg 77%
    21:00 +8°C° 0 mm 1 mps 620 mmHg 76%
    22:00 +7°C° 0 mm 1 mps 620 mmHg 73%
    23:00 +7°C° 0 mm 1 mps 620 mmHg 70%
    Show more